Regional Weather Roundup
Issued by NWS

Home | Current Version | Previous Version | Text Only | Print | Product List | Glossary On
Versions: 1 2 3 4 5 6 7 8 9 10 11 12 13 14 15 16 17 18 19 20 21 22 23 24 25 26 27 28 29 30 31 32 33 34 35 36 37 38 39 40 41 42 43 44 45 46 47 48 49 50
000
ASUS44 KJAN 161510
RWRMS

MISSISSIPPI HOURLY WEATHER ROUNDUP
NATIONAL WEATHER SERVICE JACKSON MS
1000 AM CDT TUE SEP 16 2014

NOTE: "FAIR: INDICATES FEW OR NO CLOUDS BELOW 12,000 FEET WITH NO
SIGNIFICANT WEATHER AND/OR OBSTRUCTIONS TO VISIBILITY.

MSZ001>002-007>008-010>013-018>021-025>028-034>036-161600-
NORTHWEST MISSISSIPPI

CITY           SKY/WX    TMP DP  RH WIND       PRES   REMARKS
CLARKSDALE     FAIR      77  70  78 CALM      30.13R
CLEVELAND      FAIR      77  71  81 N6        30.11S
GREENWOOD      CLOUDY    76  68  76 NE5       30.12S
GREENVILLE     CLOUDY    78  67  68 NE3       30.11S
GRENADA        FAIR      77  64  65 CALM      30.12S
OLIVE BRANCH   CLOUDY    70  70 100 N8        30.15R FOG
OXFORD         FAIR      75  66  73 NE5       30.14S
TUNICA         MOSUNNY   73  68  83 N7        30.13S
$$

MSZ003>006-009-014>017-022>024-029>033-037>039-161600-
NORTHEAST MISSISSIPPI

CITY           SKY/WX    TMP DP  RH WIND       PRES   REMARKS
COLUMBUS AFB   PTSUNNY   76  71  84 NE3       30.11F
CORINTH        FAIR      77  66  69 VRB3      30.12S
GOLDN TRIANGLE PTSUNNY   75  70  83 N5        30.12S
STARKVILLE     FAIR      77  66  69 N3        30.12S
TUPELO         MOSUNNY   79  65  62 N3        30.12R
$$

MSZ040-058-161600-
CENTRAL MISSISSIPPI

CITY           SKY/WX    TMP DP  RH WIND       PRES   REMARKS
JACKSON INTL   PTSUNNY   84  68  58 NE9       30.10S
JACKSON HAWKNS MOSUNNY   83  69  62 NE8       30.11S
MERIDIAN KEY   MOSUNNY   84  68  58 NE8       30.10S
MERIDIAN NAS   PTSUNNY   84  69  60 NE8       30.10F
RAYMOND        FAIR      82  77  83 NE5       30.11R HX  91
VICKSBURG      PTSUNNY   80  70  71 NE7       30.11S
$$

MSZ059>079-161600-
SOUTH MISSISSIPPI

CITY           SKY/WX    TMP DP  RH WIND       PRES   REMARKS
BROOKHAVEN     FAIR      79  73  83 CALM      30.12S
HATTIESBURG    MOSUNNY   85  73  67 N5        30.08F HX  91
MCCOMB         PTSUNNY   84  71  65 NE7       30.09S
NATCHEZ        CLOUDY    79  73  83 NE5       30.11R
PINE BELT      MOSUNNY   82  72  69 N7        30.10S
$$

MSZ080>082-161600-
COASTAL MISSISSIPPI

CITY           SKY/WX    TMP DP  RH WIND       PRES   REMARKS
BAY ST LOUIS   SUNNY     82  73  74 VRB5      30.06F
BILOXI         SUNNY     85  73  67 N6        30.06F HX  92
PASCAGOULA     SUNNY     84  74  71 VRB6      30.06S HX  91
GULFPORT       SUNNY     84  74  71 VRB3      30.05F HX  91
$$



USA.gov is the U.S. government's official web portal to all federal, state and local government web resources and services.